Weather History for Caribou, ME

Change the Weather History Date:

Sunday, February 17, 2013

  Actual Average Record
Temperature  
Mean Temperature 19 °F 15 °F  
Max Temperature 23 °F 25 °F 47 °F (1981)
Min Temperature 15 °F 5 °F -23 °F (2004)
Degree Days  
Heating Degree Days 46 50  
Month to date heating degree days 876 894  
Since 1 July heating degree days 5702 6188  
Cooling Degree Days 0 0  
Month to date cooling degree days 0 0  
Year to date cooling degree days 0 0  
Moisture  
Dew Point 12 °F    
Average Humidity 81    
Maximum Humidity 88    
Minimum Humidity 74    
Precipitation  
Precipitation 0.19 in 0.08 in 0.92 in (2006)
Month to date precipitation 1.19 1.33  
Year to date precipitation 3.05 4.04  
Snow  
Snow 4.20 in 0.80 in 10.10 in (1955)
Month to date snowfall 23.0 13.7  
Since 1 July snowfall 66.2 74.0  
Snow Depth 11.00 in    
Sea Level Pressure  
Sea Level Pressure 29.41 in    
Wind  
Wind Speed 23 mph (NNW)    
Max Wind Speed 38 mph    
Max Gust Speed 52 mph    
Visibility 2 miles    
Events Fog , Snow    
T = Trace of Precipitation, MM = Missing Value Source: NWS Daily Summary

Daily Weather History Graph

Daily Weather History Graph

Search for Another Location

Airport:

Trip Planner

Search our weather history database for the weather conditions in past years. The results will help you decide how hot, cold, wet, or windy it might be!

Date:

Astronomy

Feb. 17, 2013 Rise Set
Actual Time 6:32 AM EST 5:00 PM EST
Civil Twilight 6:01 AM EST 5:31 PM EST
Nautical Twilight 5:26 AM EST 6:06 PM EST
Astronomical Twilight 4:51 AM EST 6:41 PM EST
Moon 9:53 AM EST 12:21 AM EST
Length of Visible Light 11h 29m
Length of Day
10h 27m
Waxing Crescent, 49% of the Moon is Illuminated
Feb 17
Waxing Crescent
Feb 17
First Quarter
Feb 25
Full
Mar 4
Last Quarter
Mar 11
New

Hourly Weather History & Observations

Time (EST) Temp. Windchill Dew Point Humidity Pressure Visibility Wind Dir Wind Speed Gust Speed Precip Events Conditions
12:03 AM 23.0 °F 13.9 °F 19.4 °F 86% 29.79 in 1.8 mi North 8.1 mph - 0.00 in Snow Light Snow
12:13 AM 23.0 °F 11.7 °F 19.4 °F 86% 29.78 in 2.0 mi NNW 11.5 mph - 0.00 in Snow Light Snow
12:54 AM 21.9 °F 11.7 °F 18.0 °F 85% 29.80 in 2.5 mi North 9.2 mph - 0.01 in Snow Light Snow
1:06 AM 21.2 °F 7.8 °F 15.8 °F 80% 29.76 in 3.0 mi NNW 15.0 mph 20.7 mph 0.00 in Snow Light Snow
1:35 AM 19.4 °F 7.2 °F 15.8 °F 86% 29.76 in 2.0 mi NNW 11.5 mph - 0.00 in Snow Light Snow
1:42 AM 19.4 °F 4.1 °F 15.8 °F 86% 29.76 in 1.5 mi NNW 18.4 mph - 0.00 in Snow Light Snow
1:54 AM 19.9 °F 5.7 °F 15.1 °F 81% 29.79 in 1.2 mi NNW 16.1 mph 24.2 mph 0.00 in Snow Light Snow
2:08 AM 19.4 °F 6.0 °F 15.8 °F 86% 29.74 in 1.5 mi NNW 13.8 mph 19.6 mph 0.00 in Snow Light Snow
2:24 AM 19.4 °F 7.2 °F 14.0 °F 80% 29.73 in 2.5 mi NNW 11.5 mph 20.7 mph 0.00 in Snow Light Snow
2:46 AM 17.6 °F 3.7 °F 14.0 °F 86% 29.70 in 3.0 mi North 13.8 mph 20.7 mph 0.01 in Snow Light Snow
2:54 AM 18.0 °F 5.4 °F 14.0 °F 84% 29.74 in 4.0 mi NNW 11.5 mph 20.7 mph 0.01 in Snow Light Snow
3:28 AM 17.6 °F 3.7 °F 12.2 °F 79% 29.67 in 2.5 mi North 13.8 mph 21.9 mph 0.00 in Snow Light Snow
3:37 AM 17.6 °F 2.7 °F 12.2 °F 79% 29.67 in 4.0 mi NNW 16.1 mph - 0.00 in Snow Light Snow
3:54 AM 18.0 °F 3.6 °F 12.9 °F 81% 29.71 in 3.0 mi North 15.0 mph - 0.00 in Snow Light Snow
4:09 AM 17.6 °F 2.7 °F 12.2 °F 79% 29.66 in 2.5 mi North 16.1 mph 23.0 mph 0.00 in Snow Light Snow
4:27 AM 17.6 °F 3.7 °F 12.2 °F 79% 29.65 in 1.5 mi NNW 13.8 mph 21.9 mph 0.00 in Snow Light Snow
4:34 AM 17.6 °F 3.2 °F 12.2 °F 79% 29.64 in 1.8 mi North 15.0 mph 20.7 mph 0.00 in Snow Light Snow
4:46 AM 17.6 °F 3.7 °F 12.2 °F 79% 29.64 in 1.0 mi NNW 13.8 mph 23.0 mph 0.00 in Snow Light Snow
4:50 AM 17.6 °F 3.7 °F 12.2 °F 79% 29.64 in 0.8 mi NNW 13.8 mph 23.0 mph 0.00 in Snow Light Snow
4:54 AM 17.1 °F 3.6 °F 12.9 °F 84% 29.68 in 0.8 mi NNW 12.7 mph - 0.00 in Snow Light Snow
5:15 AM 15.8 °F 0.3 °F 12.2 °F 86% 29.63 in 1.0 mi NNW 16.1 mph 23.0 mph 0.01 in Snow Light Snow
5:29 AM 15.8 °F 0.9 °F 12.2 °F 86% 29.61 in 1.0 mi NNW 15.0 mph 24.2 mph 0.02 in Snow Light Snow
5:54 AM 16.0 °F 0.1 °F 12.0 °F 84% 29.65 in 1.2 mi NNW 17.3 mph 24.2 mph 0.03 in Snow Light Snow
6:01 AM 15.8 °F -0.6 °F 12.2 °F 86% 29.61 in 1.5 mi NNW 18.4 mph 26.5 mph 0.00 in Snow Light Snow
6:28 AM 15.8 °F 0.3 °F 10.4 °F 79% 29.60 in 2.0 mi North 16.1 mph 24.2 mph N/A Snow Light Snow
6:38 AM 15.8 °F 0.9 °F 10.4 °F 79% 29.59 in 1.5 mi North 15.0 mph 21.9 mph 0.01 in Snow Light Snow
6:54 AM 16.0 °F 0.1 °F 10.9 °F 81% 29.62 in 1.2 mi NNW 17.3 mph 26.5 mph 0.01 in Snow Light Snow
7:05 AM 15.8 °F 0.9 °F 10.4 °F 79% 29.57 in 1.0 mi NNW 15.0 mph 24.2 mph 0.00 in Snow Light Snow
7:15 AM 15.8 °F 0.3 °F 10.4 °F 79% 29.57 in 0.8 mi North 16.1 mph 23.0 mph 0.00 in Snow Light Snow
7:47 AM 15.8 °F -0.6 °F 10.4 °F 79% 29.54 in 1.5 mi NNW 18.4 mph 27.6 mph 0.01 in Snow Light Snow
7:54 AM 15.1 °F -1.1 °F 10.9 °F 84% 29.58 in 2.0 mi NNW 17.3 mph 27.6 mph 0.01 in Snow Light Snow
8:18 AM 15.8 °F -0.2 °F 10.4 °F 79% 29.51 in 1.5 mi North 17.3 mph 26.5 mph 0.00 in Snow Light Snow
8:41 AM 15.8 °F -0.2 °F 10.4 °F 79% 29.49 in 1.2 mi North 17.3 mph 27.6 mph 0.00 in Snow Light Snow
8:54 AM 16.0 °F -0.4 °F 10.9 °F 81% 29.52 in 2.5 mi North 18.4 mph 27.6 mph 0.00 in Snow Light Snow
9:13 AM 15.8 °F -0.6 °F 10.4 °F 79% 29.46 in 4.0 mi North 18.4 mph 25.3 mph 0.00 in   Overcast
9:36 AM 15.8 °F 0.3 °F 10.4 °F 79% 29.45 in 1.8 mi NNW 16.1 mph 21.9 mph 0.00 in Snow Light Snow
9:44 AM 15.8 °F 0.9 °F 10.4 °F 79% 29.44 in 2.0 mi NNW 15.0 mph 23.0 mph 0.00 in Snow Light Snow
9:54 AM 16.0 °F -0.4 °F 10.9 °F 81% 29.47 in 2.0 mi NNW 18.4 mph 25.3 mph 0.00 in Snow Light Snow
10:01 AM 15.8 °F -0.2 °F 10.4 °F 79% 29.42 in 3.0 mi North 17.3 mph 25.3 mph 0.00 in Snow Light Snow
10:12 AM 15.8 °F -1.1 °F 10.4 °F 79% 29.41 in 6.0 mi North 19.6 mph 26.5 mph 0.00 in   Overcast
10:28 AM 15.8 °F -0.2 °F 10.4 °F 79% 29.39 in 7.0 mi North 17.3 mph 25.3 mph 0.00 in   Overcast
10:54 AM 17.1 °F 0.1 °F 10.9 °F 77% 29.40 in 3.0 mi North 20.7 mph 26.5 mph 0.00 in Snow Light Snow
11:04 AM 17.6 °F 0.1 °F 10.4 °F 73% 29.35 in 2.0 mi North 23.0 mph 31.1 mph 0.00 in Snow Light Snow
11:13 AM 17.6 °F 0.9 °F 10.4 °F 73% 29.34 in 1.8 mi NNW 20.7 mph 32.2 mph 0.00 in Snow Light Snow
11:54 AM 17.1 °F 0.1 °F 12.0 °F 81% 29.32 in 1.2 mi North 20.7 mph 31.1 mph 0.00 in Snow Light Snow
12:23 PM 17.6 °F 0.5 °F 12.2 °F 79% 29.24 in 1.8 mi NNW 21.9 mph 34.5 mph 0.00 in Snow Light Snow
12:31 PM 17.6 °F -0.3 °F 12.2 °F 79% 29.23 in 2.0 mi NNW 24.2 mph 33.4 mph 0.00 in Snow Light Snow
12:54 PM 18.0 °F 0.6 °F 12.0 °F 78% 29.25 in 2.5 mi NNW 23.0 mph 34.5 mph 0.00 in Snow Light Snow
1:26 PM 17.6 °F 0.9 °F 12.2 °F 79% 29.18 in 4.0 mi NNW 20.7 mph 33.4 mph 0.00 in   Overcast
1:54 PM 17.1 °F 0.1 °F 12.0 °F 81% 29.19 in 4.0 mi NNW 20.7 mph 32.2 mph 0.00 in   Overcast
2:14 PM 17.6 °F 0.5 °F 10.4 °F 73% 29.14 in 2.5 mi NNW 21.9 mph 34.5 mph 0.00 in   Overcast
2:31 PM 17.6 °F -1.0 °F 10.4 °F 73% 29.12 in 1.8 mi NNW 26.5 mph 39.1 mph 0.00 in   Overcast
2:54 PM 17.1 °F -1.0 °F 10.9 °F 77% 29.14 in 1.8 mi NNW 24.2 mph 36.8 mph 0.00 in Snow Blowing Snow
3:08 PM 17.6 °F -1.3 °F 10.4 °F 73% 29.09 in 0.8 mi NNW 27.6 mph 40.3 mph 0.00 in Snow Light Snow
3:54 PM 18.0 °F -1.4 °F 12.9 °F 81% 29.10 in 0.5 mi NNW 29.9 mph 38.0 mph 0.00 in Snow Snow
4:54 PM 19.0 °F -0.5 °F 14.0 °F 81% 29.07 in 0.5 mi NNW 32.2 mph 42.6 mph 0.00 in Snow Snow
5:54 PM 19.9 °F 0.4 °F 15.1 °F 81% 29.05 in 0.8 mi NNW 33.4 mph 41.4 mph 0.03 in Snow Light Snow
6:30 PM 19.4 °F 1.4 °F 15.8 °F 86% 29.00 in 1.0 mi NW 26.5 mph 42.6 mph 0.00 in Snow Light Snow
6:41 PM 19.4 °F 2.5 °F 15.8 °F 86% 29.00 in 0.8 mi NW 23.0 mph 36.8 mph 0.00 in Snow Light Snow
7:15 PM 17.6 °F -2.8 °F 14.0 °F 86% 28.99 in 0.5 mi NW 33.4 mph 46.0 mph 0.00 in Fog , Snow Light Snow
7:54 PM 18.0 °F -0.8 °F 12.9 °F 81% 29.02 in 0.5 mi NW 27.6 mph 49.5 mph 0.00 in Snow Blowing Snow
8:54 PM 18.0 °F -0.8 °F 12.9 °F 81% 29.03 in 1.2 mi NW 27.6 mph 44.9 mph N/A Snow Blowing Snow
9:22 PM 17.6 °F -0.3 °F 12.2 °F 79% 28.99 in 1.0 mi NW 24.2 mph 43.7 mph N/A Snow Blowing Snow
9:54 PM 18.0 °F -1.1 °F 12.9 °F 81% 29.03 in 1.0 mi NW 28.8 mph 47.2 mph 0.03 in Snow Blowing Snow
10:44 PM 17.6 °F -1.6 °F 12.2 °F 79% 29.00 in 0.8 mi NW 28.8 mph 46.0 mph 0.00 in Snow Light Snow
10:54 PM 17.1 °F -2.0 °F 12.0 °F 81% 29.04 in 1.0 mi NW 27.6 mph 39.1 mph 0.00 in Snow Light Snow
11:06 PM 17.6 °F -1.6 °F 10.4 °F 73% 29.00 in 0.8 mi NW 28.8 mph 44.9 mph 0.00 in Snow Light Snow
11:13 PM 17.6 °F -1.9 °F 10.4 °F 73% 29.00 in 1.2 mi NW 29.9 mph 43.7 mph 0.00 in Snow Light Snow
11:44 PM 17.6 °F -1.3 °F 10.4 °F 73% 29.01 in 1.8 mi NW 27.6 mph 46.0 mph 0.00 in Snow Light Snow
11:54 PM 17.1 °F -3.8 °F 10.0 °F 74% 29.05 in 2.0 mi NW 34.5 mph 48.3 mph 0.00 in Snow Light Snow